Theta_e
288 287 287 285 285 286 288 289 290 291 292 292 292 293 293 294 295 296 298 300 301 302 304 306 309 312 316 318 317 316 315 315
287 287 287 286 285 285 286 288 289 290 291 291 292 292 294 294 294 295 297 299 300 301 303 305 306 310 314 316 316 315 312 313
287 287 286 286 284 285 285 287 289 290 291 291 291 292 292 292 293 295 295 298 299 300 302 302 303 307 310 309 310 309 307 306
286 286 286 285 284 284 285 286 289 290 290 291 291 291 291 291 292 294 295 296 297 298 298 299 301 302 303 303 302 301 301 302
285 285 285 283 283 284 284 286 288 289 289 290 290 290 290 291 291 292 294 294 295 296 296 297 298 299 299 299 297 295 294 294
278 279 284 282 282 284 284 285 287 288 288 289 291 290 290 290 290 291 292 293 294 294 294 295 296 297 297 296 294 292 290 289
281 280 281 283 282 283 280 284 286 287 287 288 290 290 289 290 290 290 290 291 292 291 292 292 294 294 294 294 292 291 290 288
284 282 281 280 283 282 283 284 285 285 285 284 284 287 288 289 289 289 289 290 290 290 290 290 292 293 293 291 292 290 288 286
286 284 282 282 280 283 283 284 284 285 286 285 284 284 286 286 288 288 288 288 288 288 289 289 290 292 291 290 288 286 285 285
288 286 284 283 283 283 282 283 283 284 284 284 284 284 284 283 283 284 285 286 287 287 287 286 288 290 290 288 285 284 283 284
288 285 284 283 282 282 282 282 282 284 284 283 283 284 283 283 283 283 283 284 283 284 284 284 285 290 290 287 283 283 282 283
286 285 284 282 282 282 282 282 283 283 283 282 282 283 283 282 282 282 282 282 280 281 282 282 283 285 290 288 283 283 282 282
285 283 282 282 282 281 281 282 280 280 279 278 277 281 281 278 278 278 279 277 276 277 278 279 280 284 288 289 287 286 282 281
285 282 277 279 280 279 278 277 275 276 277 276 276 278 278 277 275 276 275 276 276 277 277 278 279 280 287 288 289 288 281 281
281 280 280 277 279 280 277 277 277 276 274 275 276 275 274 278 279 276 274 274 277 277 277 275 276 277 277 280 280 284 282 284
282 282 282 280 278 276 277 277 277 276 275 276 276 277 277 277 278 279 278 279 276 276 276 274 275 278 282 280 277 275 279 273
282 279 282 281 280 278 279 279 278 277 277 277 277 276 277 277 276 282 284 284 286 286 281 278 283 286 286 286 285 285 285 269
285 282 281 283 282 280 280 279 279 280 278 278 278 278 277 276 277 277 278 286 287 287 288 288 284 287 288 288 287 286 285 275
285 283 283 283 285 282 281 281 281 279 277 279 279 279 278 278 278 277 275 277 278 283 286 287 287 286 287 287 287 283 284 282
280 285 285 284 284 280 282 283 282 280 279 279 278 278 278 277 276 277 277 278 278 270 278 283 286 286 286 286 281 281 281 282
Wind_Speed
2 4 2 3 2 2 3 3 2 4 4 4 4 5 5 5 5 6 5 5 4 3 4 4 4 3 1 5 6 6 4 3
3 2 3 3 2 2 3 3 3 3 3 3 3 4 4 4 5 5 5 6 5 4 4 3 3 3 2 4 5 4 5 3
5 5 3 3 1 2 2 2 2 2 3 3 4 4 5 5 5 5 5 5 5 4 3 4 4 3 6 6 6 8 6 5
4 5 4 3 3 1 2 0 2 3 2 3 4 4 5 6 5 4 5 4 4 4 4 5 4 5 6 7 7 7 6 5
3 3 4 4 3 4 0 1 2 3 3 4 4 4 4 4 5 5 4 3 4 4 5 5 5 6 7 8 8 8 7 6
5 4 2 4 3 2 3 0 2 2 2 2 3 3 4 5 5 5 5 5 4 5 6 6 5 4 6 7 8 8 8 7
6 6 6 6 6 5 2 2 1 1 2 3 3 3 4 4 4 5 5 6 6 6 6 6 5 10 11 8 7 7 7 7
9 8 7 7 6 6 7 4 3 3 2 4 5 4 4 4 4 4 5 5 5 6 6 6 6 11 10 9 6 6 6 6
7 7 7 6 5 5 6 6 5 4 3 2 1 2 4 4 4 4 3 4 4 5 6 7 6 10 10 10 7 6 6 5
7 6 8 8 7 7 6 6 6 6 5 5 5 2 2 3 4 3 3 4 4 4 5 5 5 7 8 8 6 6 6 4
8 6 8 8 8 7 6 6 7 6 6 5 5 6 4 2 3 3 2 2 2 4 4 4 5 5 7 6 4 5 3 3
8 9 8 9 9 8 7 8 6 5 6 5 4 4 5 5 2 2 2 3 3 3 3 2 1 1 5 9 4 4 4 3
8 7 7 8 8 8 8 5 5 6 5 4 3 3 3 4 2 3 4 3 2 2 1 2 3 3 3 5 5 8 4 5
7 7 4 7 7 7 5 7 6 5 6 6 5 4 5 5 2 2 3 3 2 1 2 3 2 2 5 4 6 7 2 2
5 6 7 7 8 7 7 7 8 6 5 3 5 4 2 2 4 4 3 2 3 3 3 3 2 2 2 2 0 3 3 6
7 6 7 7 7 6 6 8 7 6 5 5 5 5 5 4 4 5 4 5 5 4 4 4 4 4 7 6 2 2 3 4
7 4 6 7 7 7 7 9 8 7 6 6 5 5 4 4 3 11 12 13 15 12 8 5 9 8 12 13 11 10 11 3
9 8 5 6 7 7 9 9 8 8 6 5 6 5 5 4 5 6 3 17 16 15 15 14 10 13 11 16 15 12 12 3
4 6 7 6 8 6 8 10 9 7 7 6 6 6 5 6 6 4 4 5 4 13 14 15 15 13 13 14 14 7 11 8
4 4 4 5 8 5 7 9 9 7 6 5 4 5 6 5 4 5 5 6 5 1 5 11 16 16 15 16 7 8 9 10
Wind_Direction
179 156 140 120 90 63 70 88 29 358 353 12 359 351 346 356 13 13 10 18 6 351 346 355 8 358 78 140 140 144 142 133
143 178 164 123 108 81 61 65 37 359 10 23 357 5 14 20 9 4 358 11 4 345 356 14 5 4 161 170 141 131 119 136
153 177 209 172 191 123 86 62 49 14 33 16 19 24 25 16 4 5 12 9 355 348 5 39 9 351 102 98 115 118 121 120
144 178 200 212 163 245 110 128 45 55 38 34 34 35 24 13 3 3 19 16 12 12 18 30 23 54 67 87 89 87 84 91
145 164 153 177 188 155 218 360 23 52 42 24 23 26 35 25 12 15 24 40 34 31 42 46 47 70 76 86 87 79 72 64
180 200 194 183 168 146 144 17 351 68 63 57 58 28 23 38 39 23 21 30 32 41 40 31 43 53 91 91 94 99 92 75
184 181 205 218 199 166 177 198 90 59 24 16 35 52 39 34 48 61 44 30 47 56 60 54 54 79 84 94 97 96 101 99
190 186 190 196 202 184 173 167 140 126 49 25 19 19 40 53 47 51 66 69 68 72 74 70 67 80 84 87 95 95 100 104
177 166 180 180 183 170 157 153 160 178 157 160 75 24 357 33 54 63 46 63 78 80 77 71 55 74 87 85 87 91 87 101
170 162 153 162 169 160 164 162 166 176 175 170 153 144 74 45 21 16 53 51 44 59 82 93 76 85 103 101 91 85 87 112
159 145 149 163 158 159 177 176 187 187 185 173 164 152 138 101 54 357 3 79 82 73 70 87 98 86 114 114 116 117 111 83
152 164 176 155 152 172 179 205 199 173 162 162 166 157 152 138 123 99 58 40 30 46 50 73 126 110 142 156 157 148 147 146
153 171 168 161 160 174 197 197 169 160 155 161 160 153 147 137 132 123 122 96 46 69 8 330 317 214 215 187 175 165 148 168
168 168 183 171 169 180 208 160 157 157 177 175 164 167 164 150 159 129 140 147 181 189 277 265 265 283 233 217 179 179 137 127
157 180 196 197 191 185 168 159 154 175 184 180 177 176 199 187 167 163 175 194 198 201 219 237 259 273 309 306 121 181 138 161
192 202 209 187 209 189 176 158 171 181 180 187 187 195 195 207 198 207 212 181 190 213 190 187 235 232 210 191 189 179 176 104
202 205 222 203 207 193 191 179 170 182 185 191 188 188 195 200 251 243 239 226 229 224 198 217 217 202 205 199 197 195 169 68
214 210 187 207 223 191 183 183 190 200 184 181 185 194 194 196 208 242 271 240 239 236 227 220 224 217 200 193 195 197 190 172
214 207 207 202 225 203 180 188 200 198 180 183 189 193 190 203 211 197 199 229 239 241 236 231 223 223 211 194 184 190 208 214
193 231 199 207 241 188 179 194 196 189 198 193 187 193 197 187 196 209 218 235 239 273 256 231 234 226 217 210 213 207 207 210